Location: Fishcreek Rd Observing Site
(41.1865°N, 81.4271°W)
Time: 22:43:46
(UTC-04:00)

Iridium 75 - Visible Passes

Search period start: 22 May 2015 00:00
Search period end: 01 June 2015 00:00
Orbit: 776 x 779 km, 86.4° (Epoch: 22 May)

Date Brightness Start Highest point End Pass type
(mag) Time Alt. Az. Time Alt. Az. Time Alt. Az.
22 May 6.1 21:18:02 10° S 21:23:11 66° E 21:28:23 10° N visible
22 May 8.7 23:01:40 10° WSW 23:04:33 14° WNW 23:07:12 10° NW visible
23 May 8.1 22:26:17 10° SW 22:30:37 26° WNW 22:34:53 10° NNW visible
24 May 7.1 21:51:52 10° SSW 21:56:52 46° W 22:01:53 10° N visible
25 May 6.1 21:18:03 10° S 21:23:16 86° W 21:28:32 10° N visible
26 May 8.7 22:27:20 10° WSW 22:30:57 18° WNW 22:34:24 10° NNW visible
27 May 7.9 21:52:25 10° SW 21:57:05 32° W 22:01:44 10° NNW visible
28 May 6.7 21:18:16 10° SSW 21:23:25 59° W 21:28:34 10° N visible
29 May 9.0 22:29:01 10° W 22:31:21 12° WNW 22:33:23 10° NW visible
30 May 8.5 21:53:15 10° SW 21:57:23 23° WNW 22:01:24 10° NNW visible
31 May 7.5 21:18:41 10° SSW 21:23:35 41° W 21:28:30 10° NNW visible
